ENT4795 EPKT-LTFE

Flight info

Callsign ENT4795
Flight time 2h 19m
Altitude 35000
Route REGTO T195 RAZEC/N0457F370 DCT KEKED DCT NARKA DCT DVA DCT TIMUR DCT XANEX L606 ADORU UG80 EKI UM19 OZNEF
Aircraft B738/M-SDE2FGHIJ1RWXY/EB1

Departure

Time 2026-05-08 10:58
Airport Katowice Wojciech Korfanty International Airport (EPKT)

Arrival

Time 2026-05-08 13:17
Airport Milas Bodrum International Airport (LTFE)
Time Latitude Longitude Altitude Speed Heading
2026-05-08 10:26 50.47166 19.07078 1000 ft 0 kts 180°
2026-05-08 10:48 50.47165 19.07078 997 ft 0 kts 180°
2026-05-08 10:48 50.47163 19.07078 997 ft 0 kts 180°
2026-05-08 10:49 50.47180 19.07078 999 ft 4 kts 180°
2026-05-08 10:49 50.47207 19.07078 997 ft 4 kts 180°
2026-05-08 10:49 50.47227 19.07077 999 ft 4 kts 146°
2026-05-08 10:49 50.47235 19.07048 997 ft 3 kts 90°
2026-05-08 10:50 50.47235 19.07015 997 ft 0 kts 90°
2026-05-08 10:50 50.47235 19.07011 997 ft 1 kts 90°
2026-05-08 10:51 50.47235 19.07005 997 ft 0 kts 90°
2026-05-08 10:53 50.47235 19.07011 997 ft 3 kts 90°
2026-05-08 10:53 50.47235 19.07102 1002 ft 14 kts 90°
2026-05-08 10:53 50.47235 19.07304 1000 ft 23 kts 90°
2026-05-08 10:53 50.47234 19.07592 1000 ft 29 kts 90°
2026-05-08 10:54 50.47234 19.07895 1002 ft 27 kts 89°
2026-05-08 10:54 50.47233 19.08179 999 ft 25 kts 90°
2026-05-08 10:54 50.47232 19.08466 999 ft 29 kts 90°
2026-05-08 10:54 50.47232 19.08788 1003 ft 29 kts 90°
2026-05-08 10:55 50.47231 19.09096 1003 ft 27 kts 90°
2026-05-08 10:55 50.47230 19.09386 999 ft 26 kts 90°
2026-05-08 10:55 50.47230 19.09657 1003 ft 24 kts 90°
2026-05-08 10:55 50.47229 19.09911 1003 ft 23 kts 90°
2026-05-08 10:56 50.47269 19.10092 997 ft 18 kts 52°
2026-05-08 10:56 50.47347 19.10249 1001 ft 19 kts 52°
2026-05-08 10:56 50.47426 19.10405 998 ft 18 kts 51°
2026-05-08 10:56 50.47538 19.10446 997 ft 17 kts 357°
2026-05-08 10:57 50.47595 19.10313 1000 ft 17 kts 270°
2026-05-08 10:57 50.47596 19.09918 1000 ft 70 kts 270°
2026-05-08 10:57 50.47609 19.07098 1172 ft 169 kts 272°
2026-05-08 10:58 50.47606 19.05315 2296 ft 159 kts 270°
2026-05-08 10:58 50.47615 19.03515 2999 ft 167 kts 270°
2026-05-08 10:58 50.47623 19.01695 3849 ft 168 kts 267°
2026-05-08 10:58 50.47192 18.99983 4421 ft 185 kts 227°
2026-05-08 10:59 50.45981 18.99091 4663 ft 212 kts 186°
2026-05-08 10:59 50.44479 18.99633 4943 ft 240 kts 153°
2026-05-08 10:59 50.43202 19.01406 5501 ft 251 kts 136°
2026-05-08 10:59 50.41968 19.03528 5775 ft 278 kts 135°
2026-05-08 11:00 50.40628 19.05839 6363 ft 289 kts 135°
2026-05-08 11:00 50.39317 19.08113 7524 ft 277 kts 135°
2026-05-08 11:00 50.38012 19.10356 8427 ft 278 kts 136°
2026-05-08 11:00 50.36678 19.12599 9178 ft 285 kts 137°
2026-05-08 11:01 50.35305 19.14875 9935 ft 289 kts 137°
2026-05-08 11:01 50.33907 19.17184 10552 ft 298 kts 137°
2026-05-08 11:01 50.32441 19.19590 10726 ft 322 kts 137°
2026-05-08 11:01 50.30837 19.22217 10966 ft 342 kts 137°
2026-05-08 11:02 50.29170 19.24952 11535 ft 350 kts 137°
2026-05-08 11:02 50.25790 19.30501 13079 ft 354 kts 137°
2026-05-08 11:02 50.24078 19.33306 13825 ft 357 kts 137°
2026-05-08 11:03 50.22352 19.36129 14494 ft 360 kts 137°
2026-05-08 11:03 50.20612 19.38970 15126 ft 363 kts 137°
2026-05-08 11:03 50.18853 19.41836 15753 ft 367 kts 137°
2026-05-08 11:03 50.17101 19.44688 16336 ft 372 kts 137°
2026-05-08 11:04 50.15297 19.47620 16981 ft 376 kts 138°
2026-05-08 11:04 50.13478 19.50574 17608 ft 379 kts 138°
2026-05-08 11:04 50.11670 19.53506 18204 ft 383 kts 138°
2026-05-08 11:04 50.09810 19.56519 18761 ft 387 kts 138°
2026-05-08 11:05 50.07941 19.59544 19317 ft 389 kts 138°
2026-05-08 11:05 50.06062 19.62582 19889 ft 391 kts 138°
2026-05-08 11:05 50.04168 19.65642 20456 ft 393 kts 138°
2026-05-08 11:05 50.02261 19.68718 20997 ft 395 kts 138°
2026-05-08 11:06 50.00347 19.71799 21527 ft 398 kts 138°
2026-05-08 11:06 49.98414 19.74909 22050 ft 400 kts 139°
2026-05-08 11:06 49.96474 19.78024 22567 ft 403 kts 139°
2026-05-08 11:06 49.94519 19.81161 23058 ft 405 kts 139°
2026-05-08 11:07 49.92550 19.84316 23556 ft 408 kts 139°
2026-05-08 11:07 49.90568 19.87489 23987 ft 410 kts 139°
2026-05-08 11:07 49.88580 19.90667 24431 ft 411 kts 139°
2026-05-08 11:07 49.86609 19.93816 24846 ft 413 kts 139°
2026-05-08 11:08 49.84599 19.97020 25236 ft 415 kts 139°
2026-05-08 11:08 49.82582 20.00232 25627 ft 417 kts 139°
2026-05-08 11:08 49.80556 20.03454 26017 ft 419 kts 139°
2026-05-08 11:08 49.78517 20.06693 26369 ft 421 kts 139°
2026-05-08 11:09 49.76467 20.09945 26725 ft 423 kts 139°
2026-05-08 11:09 49.74407 20.13208 27102 ft 424 kts 139°
2026-05-08 11:09 49.72342 20.16475 27459 ft 426 kts 139°
2026-05-08 11:09 49.70259 20.19767 27771 ft 429 kts 139°
2026-05-08 11:10 49.68166 20.23069 28076 ft 431 kts 139°
2026-05-08 11:10 49.66055 20.26397 28372 ft 434 kts 138°
2026-05-08 11:10 49.63941 20.29725 28702 ft 436 kts 138°
2026-05-08 11:10 49.61838 20.33031 29004 ft 438 kts 138°
2026-05-08 11:11 49.59701 20.36387 29281 ft 440 kts 138°
2026-05-08 11:11 49.57546 20.39766 29564 ft 443 kts 138°
2026-05-08 11:11 49.55379 20.43158 29858 ft 444 kts 138°
2026-05-08 11:11 49.53204 20.46560 30128 ft 446 kts 139°
2026-05-08 11:12 49.51020 20.49971 30366 ft 448 kts 139°
2026-05-08 11:12 49.48829 20.53390 30625 ft 449 kts 139°
2026-05-08 11:12 49.46634 20.56809 30914 ft 449 kts 139°
2026-05-08 11:12 49.44442 20.60222 31186 ft 450 kts 139°
2026-05-08 11:13 49.42237 20.63647 31442 ft 451 kts 139°
2026-05-08 11:13 49.40028 20.67070 31705 ft 451 kts 139°
2026-05-08 11:13 49.37793 20.70462 32000 ft 451 kts 140°
2026-05-08 11:13 49.35540 20.73822 32250 ft 452 kts 140°
2026-05-08 11:14 49.33277 20.77176 32490 ft 453 kts 141°
2026-05-08 11:14 49.31006 20.80543 32773 ft 454 kts 141°
2026-05-08 11:14 49.28740 20.83907 33042 ft 454 kts 141°
2026-05-08 11:14 49.26500 20.87234 33278 ft 455 kts 141°
2026-05-08 11:15 49.24222 20.90616 33502 ft 456 kts 141°
2026-05-08 11:15 49.21943 20.94001 33756 ft 457 kts 141°
2026-05-08 11:15 49.19658 20.97389 34014 ft 457 kts 141°
2026-05-08 11:15 49.17379 21.00763 34217 ft 458 kts 141°
2026-05-08 11:16 49.15076 21.04148 34436 ft 457 kts 143°
2026-05-08 11:16 49.12579 21.07067 34680 ft 448 kts 154°
2026-05-08 11:16 49.09848 21.09268 34957 ft 441 kts 162°
2026-05-08 11:16 49.06982 21.10798 35176 ft 434 kts 171°
2026-05-08 11:17 49.04041 21.11804 35359 ft 433 kts 173°
2026-05-08 11:17 49.01095 21.12759 35551 ft 433 kts 173°
2026-05-08 11:17 48.98141 21.13713 35779 ft 433 kts 173°
2026-05-08 11:17 48.95198 21.14676 36014 ft 432 kts 172°
2026-05-08 11:18 48.92263 21.15651 36210 ft 432 kts 172°
2026-05-08 11:18 48.89318 21.16641 36394 ft 432 kts 172°
2026-05-08 11:18 48.86381 21.17633 36584 ft 432 kts 172°
2026-05-08 11:18 48.83487 21.18613 36809 ft 431 kts 172°
2026-05-08 11:19 48.80554 21.19606 36977 ft 431 kts 172°
2026-05-08 11:19 48.74679 21.21590 37062 ft 433 kts 172°
2026-05-08 11:20 48.68803 21.23568 37074 ft 432 kts 172°
2026-05-08 11:20 48.62928 21.25542 37076 ft 432 kts 172°
2026-05-08 11:21 48.57057 21.27509 37077 ft 431 kts 172°
2026-05-08 11:21 48.51243 21.29517 37068 ft 433 kts 169°
2026-05-08 11:22 48.45455 21.32088 37074 ft 434 kts 167°
2026-05-08 11:22 48.39679 21.34800 37062 ft 435 kts 167°
2026-05-08 11:23 48.33892 21.37481 37061 ft 435 kts 167°
2026-05-08 11:23 48.28099 21.40124 37060 ft 435 kts 168°
2026-05-08 11:24 48.22297 21.42752 37061 ft 436 kts 168°
2026-05-08 11:24 48.16485 21.45376 37066 ft 436 kts 168°
2026-05-08 11:25 48.11647 21.47556 37067 ft 437 kts 168°
2026-05-08 11:25 48.05816 21.50179 37070 ft 438 kts 168°
2026-05-08 11:26 47.99983 21.52797 37072 ft 438 kts 168°
2026-05-08 11:26 47.94125 21.55420 37074 ft 439 kts 168°
2026-05-08 11:27 47.88273 21.58035 37081 ft 439 kts 168°
2026-05-08 11:27 47.82437 21.60635 37068 ft 440 kts 168°
2026-05-08 11:28 47.76577 21.63241 37067 ft 439 kts 168°
2026-05-08 11:28 47.70713 21.65842 37065 ft 439 kts 168°
2026-05-08 11:29 47.64861 21.68431 37072 ft 439 kts 168°
2026-05-08 11:29 47.59010 21.71014 37072 ft 438 kts 168°
2026-05-08 11:30 47.53163 21.73589 37075 ft 438 kts 168°
2026-05-08 11:30 47.47353 21.76143 37074 ft 438 kts 168°
2026-05-08 11:31 47.41508 21.78705 37072 ft 438 kts 168°
2026-05-08 11:31 47.35670 21.81259 37070 ft 437 kts 168°
2026-05-08 11:32 47.29832 21.83808 37080 ft 437 kts 168°
2026-05-08 11:32 47.24026 21.86561 37042 ft 442 kts 160°
2026-05-08 11:33 47.18558 21.90823 37054 ft 445 kts 156°
2026-05-08 11:33 47.13150 21.95266 37060 ft 445 kts 156°
2026-05-08 11:34 47.07753 21.99647 37049 ft 445 kts 156°
2026-05-08 11:34 47.02319 22.04000 37043 ft 445 kts 156°
2026-05-08 11:35 46.96876 22.08334 37048 ft 445 kts 156°
2026-05-08 11:35 46.91429 22.12658 37050 ft 445 kts 156°
2026-05-08 11:36 46.86018 22.16943 37066 ft 446 kts 158°
2026-05-08 11:36 46.80556 22.21261 37055 ft 447 kts 158°
2026-05-08 11:37 46.75085 22.25576 37067 ft 448 kts 158°
2026-05-08 11:37 46.69604 22.29889 37062 ft 449 kts 158°
2026-05-08 11:38 46.64084 22.34222 37060 ft 450 kts 157°
2026-05-08 11:38 46.58569 22.38542 37070 ft 450 kts 157°
2026-05-08 11:39 46.53044 22.42860 37055 ft 450 kts 157°
2026-05-08 11:39 46.47526 22.47163 37065 ft 450 kts 157°
2026-05-08 11:40 46.42010 22.51453 37073 ft 450 kts 157°
2026-05-08 11:40 46.36517 22.55716 37059 ft 450 kts 157°
2026-05-08 11:41 46.30982 22.60001 37056 ft 451 kts 157°
2026-05-08 11:41 46.25451 22.64274 37050 ft 451 kts 157°
2026-05-08 11:42 46.19913 22.68542 37046 ft 450 kts 157°
2026-05-08 11:42 46.14425 22.72762 37040 ft 449 kts 157°
2026-05-08 11:43 46.08916 22.76990 37043 ft 448 kts 157°
2026-05-08 11:43 46.03410 22.81204 37040 ft 447 kts 157°
2026-05-08 11:44 45.97916 22.85400 37040 ft 447 kts 157°
2026-05-08 11:44 45.92417 22.89590 37041 ft 446 kts 157°
2026-05-08 11:45 45.86929 22.93765 37034 ft 446 kts 157°
2026-05-08 11:45 45.81420 22.97853 37041 ft 444 kts 160°
2026-05-08 11:46 45.75772 23.01404 37042 ft 443 kts 162°
2026-05-08 11:46 45.70076 23.04812 37044 ft 444 kts 162°
2026-05-08 11:47 45.64401 23.08239 37041 ft 445 kts 162°
2026-05-08 11:47 45.58712 23.11712 37047 ft 444 kts 162°
2026-05-08 11:48 45.53032 23.15188 37045 ft 444 kts 162°
2026-05-08 11:48 45.47344 23.18662 37042 ft 445 kts 162°
2026-05-08 11:49 45.41656 23.22129 37044 ft 444 kts 162°
2026-05-08 11:49 45.36001 23.25567 37040 ft 444 kts 162°
2026-05-08 11:50 45.30313 23.29016 37035 ft 445 kts 162°
2026-05-08 11:50 45.24614 23.32465 37027 ft 445 kts 162°
2026-05-08 11:51 45.18918 23.35906 37034 ft 445 kts 162°
2026-05-08 11:51 45.13216 23.39341 37025 ft 445 kts 162°
2026-05-08 11:52 45.07515 23.42768 37025 ft 445 kts 162°
2026-05-08 11:52 45.01816 23.46188 37027 ft 444 kts 162°
2026-05-08 11:53 44.96159 23.49575 37025 ft 444 kts 162°
2026-05-08 11:53 44.90469 23.52974 37020 ft 444 kts 162°
2026-05-08 11:54 44.84768 23.56371 37027 ft 444 kts 162°
2026-05-08 11:54 44.79075 23.59758 37018 ft 444 kts 162°
2026-05-08 11:55 44.73388 23.63133 37011 ft 444 kts 162°
2026-05-08 11:55 44.67694 23.66506 37021 ft 443 kts 162°
2026-05-08 11:56 44.62015 23.69862 37024 ft 443 kts 162°
2026-05-08 11:56 44.56335 23.73211 37026 ft 443 kts 162°
2026-05-08 11:57 44.50684 23.76537 37040 ft 442 kts 162°
2026-05-08 11:57 44.45018 23.79864 37037 ft 441 kts 162°
2026-05-08 11:58 44.39358 23.83181 37043 ft 440 kts 162°
2026-05-08 11:58 44.33700 23.86490 37045 ft 440 kts 162°
2026-05-08 11:59 44.25240 23.91424 37047 ft 439 kts 162°
2026-05-08 11:59 44.19642 23.94680 37040 ft 439 kts 162°
2026-05-08 12:00 44.14008 23.97950 37030 ft 439 kts 162°
2026-05-08 12:00 44.08363 24.01220 37031 ft 440 kts 162°
2026-05-08 12:01 44.02710 24.04488 37033 ft 440 kts 162°
2026-05-08 12:01 43.97040 24.07760 37025 ft 441 kts 162°
2026-05-08 12:02 43.91366 24.11027 37018 ft 442 kts 162°
2026-05-08 12:02 43.85675 24.14297 37026 ft 443 kts 162°
2026-05-08 12:03 43.79978 24.17565 37023 ft 443 kts 162°
2026-05-08 12:03 43.74269 24.20832 37022 ft 444 kts 162°
2026-05-08 12:04 43.68726 24.24547 37025 ft 451 kts 150°
2026-05-08 12:04 43.63936 24.30253 37033 ft 458 kts 140°
2026-05-08 12:05 43.59392 24.36445 37006 ft 459 kts 140°
2026-05-08 12:05 43.54833 24.42606 37020 ft 458 kts 140°
2026-05-08 12:06 43.50252 24.48706 37008 ft 458 kts 140°
2026-05-08 12:06 43.45659 24.54780 37015 ft 457 kts 140°
2026-05-08 12:07 43.41071 24.60833 37014 ft 457 kts 140°
2026-05-08 12:07 43.36484 24.66874 37018 ft 457 kts 141°
2026-05-08 12:08 43.31924 24.72867 37018 ft 456 kts 141°
2026-05-08 12:08 43.27328 24.78896 37015 ft 456 kts 141°
2026-05-08 12:09 43.22738 24.84903 37015 ft 456 kts 141°
2026-05-08 12:09 43.18135 24.90915 37016 ft 457 kts 141°
2026-05-08 12:10 43.13528 24.96919 37010 ft 458 kts 141°
2026-05-08 12:10 43.08903 25.02935 37021 ft 458 kts 141°
2026-05-08 12:11 43.04277 25.08946 37025 ft 459 kts 141°
2026-05-08 12:11 42.99673 25.14917 37020 ft 460 kts 141°
2026-05-08 12:12 42.95026 25.20932 37032 ft 460 kts 141°
2026-05-08 12:12 42.90358 25.26961 37022 ft 462 kts 141°
2026-05-08 12:13 42.85684 25.32984 37021 ft 462 kts 141°
2026-05-08 12:13 42.81795 25.37986 37026 ft 462 kts 141°
2026-05-08 12:14 42.77112 25.43998 37035 ft 463 kts 141°
2026-05-08 12:14 42.72421 25.50005 37035 ft 463 kts 141°
2026-05-08 12:15 42.67718 25.56016 37043 ft 463 kts 141°
2026-05-08 12:15 42.63049 25.61970 37046 ft 463 kts 141°
2026-05-08 12:16 42.58354 25.67944 37045 ft 463 kts 141°
2026-05-08 12:16 42.53646 25.73921 37058 ft 463 kts 141°
2026-05-08 12:17 42.48937 25.79888 37058 ft 463 kts 141°
2026-05-08 12:17 42.44216 25.85856 37055 ft 463 kts 141°
2026-05-08 12:18 42.39527 25.91773 37059 ft 463 kts 141°
2026-05-08 12:18 42.34806 25.97715 37061 ft 463 kts 141°
2026-05-08 12:19 42.30080 26.03655 37060 ft 464 kts 141°
2026-05-08 12:19 42.25381 26.09545 37067 ft 464 kts 142°
2026-05-08 12:20 42.20641 26.15458 37060 ft 464 kts 142°
2026-05-08 12:20 42.15891 26.21361 37064 ft 465 kts 142°
2026-05-08 12:21 42.11126 26.27274 37071 ft 465 kts 142°
2026-05-08 12:21 42.06357 26.33183 37069 ft 466 kts 142°
2026-05-08 12:22 42.01573 26.39098 37067 ft 467 kts 142°
2026-05-08 12:22 41.96781 26.45011 37077 ft 468 kts 142°
2026-05-08 12:23 41.91980 26.50925 37078 ft 468 kts 142°
2026-05-08 12:23 41.87164 26.56816 37077 ft 467 kts 144°
2026-05-08 12:24 41.82007 26.61941 37079 ft 463 kts 150°
2026-05-08 12:24 41.76690 26.66825 37082 ft 463 kts 150°
2026-05-08 12:25 41.71392 26.71748 37084 ft 463 kts 150°
2026-05-08 12:25 41.66116 26.76709 37094 ft 464 kts 150°
2026-05-08 12:26 41.60842 26.81676 37093 ft 464 kts 150°
2026-05-08 12:26 41.55561 26.86635 37104 ft 464 kts 150°
2026-05-08 12:27 41.50266 26.91596 37102 ft 465 kts 150°
2026-05-08 12:27 41.44964 26.96551 37100 ft 465 kts 150°
2026-05-08 12:28 41.39653 27.01495 37101 ft 465 kts 150°
2026-05-08 12:28 41.34374 27.06400 37106 ft 466 kts 150°
2026-05-08 12:29 41.29053 27.11336 37106 ft 466 kts 150°
2026-05-08 12:29 41.23725 27.16271 37111 ft 467 kts 150°
2026-05-08 12:30 41.18378 27.21210 37103 ft 468 kts 150°
2026-05-08 12:30 41.13024 27.26142 37113 ft 468 kts 150°
2026-05-08 12:31 41.07665 27.31073 37111 ft 469 kts 151°
2026-05-08 12:31 41.02316 27.35987 37113 ft 470 kts 151°
2026-05-08 12:32 40.96933 27.40895 37111 ft 469 kts 154°
2026-05-08 12:32 40.91099 27.44375 37123 ft 454 kts 170°
2026-05-08 12:33 40.85029 27.46704 37113 ft 455 kts 171°
2026-05-08 12:33 40.78946 27.49051 37110 ft 456 kts 170°
2026-05-08 12:34 40.72870 27.51457 37111 ft 457 kts 170°
2026-05-08 12:34 40.66815 27.53868 37116 ft 457 kts 170°
2026-05-08 12:35 40.60716 27.56289 37116 ft 458 kts 170°
2026-05-08 12:35 40.54570 27.58226 37114 ft 448 kts 181°
2026-05-08 12:36 40.48364 27.58892 37119 ft 447 kts 182°
2026-05-08 12:36 40.42150 27.59562 37109 ft 449 kts 182°
2026-05-08 12:37 40.35921 27.60261 37106 ft 446 kts 185°
2026-05-08 12:37 40.29851 27.59523 37126 ft 436 kts 195°
2026-05-08 12:38 40.23851 27.58282 37125 ft 436 kts 196°
2026-05-08 12:38 40.17881 27.57080 37113 ft 437 kts 195°
2026-05-08 12:39 40.11856 27.55912 37124 ft 437 kts 195°
2026-05-08 12:39 40.05845 27.54765 37130 ft 435 kts 195°
2026-05-08 12:40 39.99899 27.53632 37132 ft 435 kts 195°
2026-05-08 12:40 39.93927 27.52492 37123 ft 433 kts 195°
2026-05-08 12:41 39.87962 27.51356 37126 ft 434 kts 195°
2026-05-08 12:41 39.81982 27.50220 37109 ft 434 kts 195°
2026-05-08 12:42 39.75997 27.49084 37134 ft 436 kts 195°
2026-05-08 12:42 39.69989 27.47948 37144 ft 437 kts 195°
2026-05-08 12:43 39.63963 27.46821 37144 ft 437 kts 195°
2026-05-08 12:43 39.57947 27.45701 37149 ft 436 kts 195°
2026-05-08 12:44 39.51983 27.44592 37149 ft 435 kts 195°
2026-05-08 12:44 39.45984 27.43476 37147 ft 435 kts 195°
2026-05-08 12:45 39.39999 27.42364 37151 ft 434 kts 196°
2026-05-08 12:45 39.34021 27.41255 37140 ft 433 kts 196°
2026-05-08 12:46 39.28059 27.40145 37149 ft 432 kts 196°
2026-05-08 12:46 39.22103 27.39035 37139 ft 432 kts 196°
2026-05-08 12:47 39.16186 27.37935 37148 ft 431 kts 196°
2026-05-08 12:47 39.10247 27.36833 37104 ft 432 kts 196°
2026-05-08 12:48 39.07249 27.36276 36810 ft 436 kts 196°
2026-05-08 12:48 39.04246 27.35722 36553 ft 434 kts 196°
2026-05-08 12:48 39.01272 27.35186 36292 ft 432 kts 194°
2026-05-08 12:48 38.98250 27.34993 36024 ft 439 kts 185°
2026-05-08 12:49 38.95209 27.35304 35789 ft 440 kts 183°
2026-05-08 12:49 38.92154 27.35706 35540 ft 438 kts 182°
2026-05-08 12:49 38.89129 27.36118 35287 ft 436 kts 183°
2026-05-08 12:49 38.86117 27.36520 35042 ft 434 kts 183°
2026-05-08 12:50 38.83116 27.36904 34802 ft 432 kts 184°
2026-05-08 12:50 38.80125 27.37274 34557 ft 431 kts 184°
2026-05-08 12:50 38.77146 27.37635 34319 ft 429 kts 184°
2026-05-08 12:50 38.74187 27.37990 34017 ft 425 kts 184°
2026-05-08 12:51 38.71264 27.38341 33644 ft 420 kts 184°
2026-05-08 12:51 38.65527 27.39027 32862 ft 412 kts 185°
2026-05-08 12:51 38.62680 27.39366 32458 ft 409 kts 184°
2026-05-08 12:52 38.59866 27.39701 32092 ft 404 kts 185°
2026-05-08 12:52 38.54233 27.40365 31360 ft 410 kts 184°
2026-05-08 12:52 38.51400 27.40702 30969 ft 408 kts 184°
2026-05-08 12:53 38.48585 27.41042 30629 ft 404 kts 184°
2026-05-08 12:53 38.45794 27.41382 30252 ft 402 kts 184°
2026-05-08 12:53 38.43020 27.41718 29828 ft 399 kts 184°
2026-05-08 12:53 38.40331 27.42043 29443 ft 396 kts 184°
2026-05-08 12:54 38.37607 27.42372 29055 ft 392 kts 184°
2026-05-08 12:54 38.34904 27.42697 28671 ft 389 kts 183°
2026-05-08 12:54 38.32222 27.43019 28292 ft 386 kts 183°
2026-05-08 12:54 38.29553 27.43338 27912 ft 385 kts 182°
2026-05-08 12:55 38.26881 27.43847 27444 ft 394 kts 173°
2026-05-08 12:55 38.24247 27.44943 26961 ft 400 kts 167°
2026-05-08 12:55 38.21668 27.46160 26525 ft 400 kts 166°
2026-05-08 12:55 38.19066 27.47415 26059 ft 399 kts 165°
2026-05-08 12:56 38.16471 27.48664 25703 ft 397 kts 165°
2026-05-08 12:56 38.13896 27.49891 25376 ft 394 kts 165°
2026-05-08 12:56 38.11401 27.51069 25008 ft 392 kts 165°
2026-05-08 12:56 38.08846 27.52265 24615 ft 391 kts 165°
2026-05-08 12:57 38.06301 27.53449 24250 ft 389 kts 165°
2026-05-08 12:57 38.03765 27.54625 23918 ft 388 kts 165°
2026-05-08 12:57 38.01296 27.55768 23612 ft 386 kts 165°
2026-05-08 12:57 37.98771 27.56936 23160 ft 386 kts 164°
2026-05-08 12:58 37.96238 27.58105 22615 ft 388 kts 165°
2026-05-08 12:58 37.93721 27.59267 22112 ft 388 kts 164°
2026-05-08 12:58 37.91157 27.60449 21523 ft 391 kts 165°
2026-05-08 12:58 37.88741 27.61562 20962 ft 395 kts 165°
2026-05-08 12:59 37.86146 27.62757 20376 ft 398 kts 164°
2026-05-08 12:59 37.83534 27.63959 19816 ft 401 kts 164°
2026-05-08 12:59 37.80902 27.65170 19237 ft 403 kts 164°
2026-05-08 12:59 37.78268 27.66383 18671 ft 403 kts 164°
2026-05-08 13:00 37.75651 27.67587 18248 ft 398 kts 164°
2026-05-08 13:00 37.73077 27.68773 17824 ft 392 kts 164°
2026-05-08 13:00 37.70533 27.69942 17438 ft 385 kts 164°
2026-05-08 13:00 37.68027 27.71092 17045 ft 380 kts 164°
2026-05-08 13:01 37.65562 27.72222 16664 ft 375 kts 164°
2026-05-08 13:01 37.63125 27.73337 16294 ft 370 kts 164°
2026-05-08 13:01 37.60717 27.74439 15925 ft 365 kts 164°
2026-05-08 13:01 37.58373 27.75510 15561 ft 361 kts 163°
2026-05-08 13:02 37.56031 27.76579 15199 ft 356 kts 163°
2026-05-08 13:02 37.53707 27.77640 14848 ft 353 kts 163°
2026-05-08 13:02 37.51411 27.78687 14507 ft 349 kts 163°
2026-05-08 13:02 37.49143 27.79722 14159 ft 345 kts 163°
2026-05-08 13:03 37.47644 27.80405 13918 ft 343 kts 163°
2026-05-08 13:03 37.45400 27.81426 13507 ft 341 kts 163°
2026-05-08 13:03 37.43186 27.82433 13136 ft 337 kts 163°
2026-05-08 13:03 37.40994 27.83431 12785 ft 333 kts 163°
2026-05-08 13:04 37.38830 27.84416 12548 ft 326 kts 163°
2026-05-08 13:04 37.36728 27.85373 12413 ft 317 kts 163°
2026-05-08 13:04 37.34685 27.86307 12265 ft 308 kts 161°
2026-05-08 13:04 37.32914 27.87735 12114 ft 301 kts 137°
2026-05-08 13:05 37.31724 27.89861 11826 ft 298 kts 115°
2026-05-08 13:05 37.31056 27.92291 11560 ft 291 kts 109°
2026-05-08 13:05 37.30485 27.94717 11285 ft 286 kts 108°
2026-05-08 13:05 37.29930 27.97120 10989 ft 287 kts 108°
2026-05-08 13:06 37.29369 27.99511 10610 ft 291 kts 108°
2026-05-08 13:06 37.28791 28.01957 10282 ft 291 kts 108°
2026-05-08 13:06 37.28214 28.04370 9996 ft 285 kts 108°
2026-05-08 13:06 37.27647 28.06725 9672 ft 279 kts 108°
2026-05-08 13:07 37.27089 28.09030 9394 ft 272 kts 108°
2026-05-08 13:07 37.26546 28.11271 9106 ft 264 kts 108°
2026-05-08 13:07 37.26012 28.13431 8908 ft 255 kts 113°
2026-05-08 13:07 37.25039 28.15207 8641 ft 243 kts 144°
2026-05-08 13:08 37.23577 28.16104 8384 ft 230 kts 171°
2026-05-08 13:08 37.22032 28.16184 8231 ft 218 kts 192°
2026-05-08 13:08 37.20565 28.15726 7989 ft 217 kts 199°
2026-05-08 13:08 37.19115 28.15159 7813 ft 220 kts 199°
2026-05-08 13:09 37.17649 28.14582 7593 ft 226 kts 199°
2026-05-08 13:09 37.16152 28.13959 7357 ft 226 kts 207°
2026-05-08 13:09 37.15011 28.12672 7091 ft 221 kts 242°
2026-05-08 13:09 37.14607 28.10839 6919 ft 221 kts 270°
2026-05-08 13:10 37.14851 28.08942 6688 ft 220 kts 284°
2026-05-08 13:10 37.15285 28.07119 6479 ft 217 kts 288°
2026-05-08 13:10 37.15781 28.05344 6285 ft 214 kts 289°
2026-05-08 13:10 37.16240 28.03596 6087 ft 208 kts 287°
2026-05-08 13:11 37.16669 28.01860 5901 ft 208 kts 286°
2026-05-08 13:11 37.17146 28.00171 5727 ft 208 kts 289°
2026-05-08 13:11 37.17587 27.98431 5575 ft 211 kts 286°
2026-05-08 13:11 37.18006 27.96645 5362 ft 214 kts 285°
2026-05-08 13:12 37.18422 27.94858 5182 ft 212 kts 285°
2026-05-08 13:12 37.18837 27.93094 4962 ft 208 kts 287°
2026-05-08 13:12 37.19214 27.91483 4827 ft 198 kts 286°
2026-05-08 13:12 37.19603 27.89830 4518 ft 198 kts 286°
2026-05-08 13:13 37.19999 27.88164 4223 ft 201 kts 286°
2026-05-08 13:13 37.20416 27.86460 3866 ft 205 kts 286°
2026-05-08 13:13 37.20810 27.84742 3507 ft 204 kts 286°
2026-05-08 13:13 37.21200 27.83061 3157 ft 196 kts 287°
2026-05-08 13:14 37.21578 27.81470 2831 ft 186 kts 286°
2026-05-08 13:14 37.21931 27.79971 2512 ft 177 kts 286°
2026-05-08 13:14 37.22273 27.78519 2226 ft 172 kts 286°
2026-05-08 13:14 37.22605 27.77119 1958 ft 164 kts 286°
2026-05-08 13:15 37.22925 27.75774 1657 ft 159 kts 286°
2026-05-08 13:15 37.23236 27.74469 1371 ft 154 kts 285°
2026-05-08 13:15 37.23532 27.73203 1109 ft 148 kts 285°
2026-05-08 13:15 37.23821 27.71975 831 ft 145 kts 285°
2026-05-08 13:16 37.24109 27.70739 610 ft 147 kts 285°
2026-05-08 13:16 37.24407 27.69519 373 ft 144 kts 284°
2026-05-08 13:16 37.24688 27.68315 112 ft 144 kts 285°
2026-05-08 13:16 37.24962 27.67159 30 ft 124 kts 287°
2026-05-08 13:17 37.25167 27.66304 28 ft 80 kts 287°
2026-05-08 13:17 37.25259 27.65860 28 ft 38 kts 268°
2026-05-08 13:17 37.25223 27.65624 28 ft 18 kts 240°
2026-05-08 13:17 37.25142 27.65677 29 ft 17 kts 107°
2026-05-08 13:18 37.25108 27.65819 29 ft 17 kts 107°
2026-05-08 13:18 37.25071 27.65953 30 ft 16 kts 131°
2026-05-08 13:18 37.24965 27.65936 29 ft 16 kts 194°
2026-05-08 13:18 37.24906 27.66040 29 ft 17 kts 107°
2026-05-08 13:19 37.24870 27.66191 29 ft 18 kts 107°
2026-05-08 13:19 37.24834 27.66341 29 ft 18 kts 107°
2026-05-08 13:19 37.24796 27.66484 29 ft 17 kts 120°
2026-05-08 13:19 37.24747 27.66620 29 ft 18 kts 106°
2026-05-08 13:20 37.24710 27.66778 29 ft 19 kts 107°
2026-05-08 13:20 37.24672 27.66932 29 ft 18 kts 107°
2026-05-08 13:20 37.24636 27.67081 29 ft 19 kts 106°
2026-05-08 13:20 37.24598 27.67246 29 ft 20 kts 106°
2026-05-08 13:21 37.24557 27.67416 29 ft 21 kts 107°
2026-05-08 13:21 37.24516 27.67588 29 ft 21 kts 107°
2026-05-08 13:21 37.24474 27.67766 29 ft 22 kts 107°
2026-05-08 13:21 37.24438 27.67904 29 ft 7 kts 131°
2026-05-08 13:22 37.24387 27.67900 29 ft 7 kts 197°
2026-05-08 13:22 37.24366 27.67892 29 ft 2 kts 197°
2026-05-08 13:22 37.24360 27.67889 29 ft 0 kts 197°